Weather History for Crossville, TN

Change the Weather History Date:

Thursday, September 13, 2012

  Actual Average Record
Temperature  
Mean Temperature 67 °F 68 °F  
Max Temperature 77 °F 78 °F 92 °F (1998)
Min Temperature 57 °F 58 °F 42 °F (1968)
Degree Days  
Heating Degree Days 0    
Month to date heating degree days 3  
Since 1 July heating degree days 3  
Cooling Degree Days 2    
Month to date cooling degree days 84  
Year to date cooling degree days 1126  
Growing Degree Days 18 (Base 50)    
Moisture  
Dew Point 56 °F    
Average Humidity 68    
Maximum Humidity 93    
Minimum Humidity 43    
Precipitation  
Precipitation 0.00 in 0.14 in 2.29 in (1995)
Month to date precipitation 1.27 1.64  
Year to date precipitation 32.99 39.76  
Sea Level Pressure  
Sea Level Pressure 30.28 in    
Wind  
Wind Speed 2 mph (SSE)    
Max Wind Speed 9 mph    
Max Gust Speed 13 mph    
Visibility 10 miles    
Events      
T = Trace of Precipitation, MM = Missing Value Source: NWS Daily Summary

Daily Weather History Graph

Daily Weather History Graph

Search for Another Location

Airport:

Trip Planner

Search our weather history database for the weather conditions in past years. The results will help you decide how hot, cold, wet, or windy it might be!

Date:

Astronomy

Sep. 13, 2012 Rise Set
Actual Time 6:21 AM CDT 6:49 PM CDT
Civil Twilight 5:55 AM CDT 7:15 PM CDT
Nautical Twilight 5:25 AM CDT 7:45 PM CDT
Astronomical Twilight 4:54 AM CDT 8:16 PM CDT
Moon 3:44 AM CDT (9/13) 5:09 PM CDT (9/13)
Length of Visible Light 13h 19m
Length of Day
12h 28m
Waning Crescent, 7% of the Moon is Illuminated
Sep 13
Waning Crescent
Sep 15
New
Sep 22
First Quarter
Sep 29
Full
Oct 8
Last Quarter

Hourly Weather History & Observations

Time (CDT) Temp. Dew Point Humidity Pressure Visibility Wind Dir Wind Speed Gust Speed Precip Events Conditions
12:53 AM 62.1 °F 55.9 °F 80% 30.27 in 10.0 mi South 4.6 mph - N/A   Partly Cloudy
1:53 AM 62.1 °F 57.0 °F 84% 30.27 in 10.0 mi Calm Calm - N/A   Partly Cloudy
2:53 AM 64.9 °F 55.9 °F 73% 30.26 in 10.0 mi Calm Calm - N/A   Clear
3:53 AM 62.1 °F 55.9 °F 80% 30.27 in 10.0 mi Calm Calm - N/A   Clear
4:53 AM 60.1 °F 55.9 °F 86% 30.29 in 8.0 mi Calm Calm - N/A   Mostly Cloudy
5:53 AM 60.1 °F 55.9 °F 86% 30.30 in 7.0 mi Calm Calm - N/A   Scattered Clouds
6:53 AM 62.1 °F 55.9 °F 80% 30.33 in 6.0 mi Calm Calm - N/A   Haze
7:53 AM 66.0 °F 59.0 °F 78% 30.34 in 10.0 mi Calm Calm - N/A   Clear
8:53 AM 68.0 °F 57.0 °F 68% 30.35 in 10.0 mi SSE 4.6 mph - N/A   Mostly Cloudy
9:53 AM 69.1 °F 55.9 °F 63% 30.35 in 10.0 mi South 5.8 mph - N/A   Scattered Clouds
10:53 AM 73.0 °F 55.0 °F 53% 30.34 in 10.0 mi South 5.8 mph - N/A   Clear
11:53 AM 73.9 °F 55.9 °F 53% 30.31 in 10.0 mi Variable 5.8 mph - N/A   Partly Cloudy
12:53 PM 73.0 °F 55.0 °F 53% 30.29 in 10.0 mi Calm Calm - N/A   Partly Cloudy
1:53 PM 75.9 °F 55.0 °F 48% 30.26 in 10.0 mi Variable 6.9 mph - N/A   Mostly Cloudy
2:53 PM 77.0 °F 54.0 °F 45% 30.24 in 10.0 mi Variable 4.6 mph - N/A   Mostly Cloudy
3:53 PM 77.0 °F 54.0 °F 45% 30.22 in 10.0 mi ESE 5.8 mph - N/A   Partly Cloudy
4:53 PM 73.9 °F 55.0 °F 52% 30.23 in 10.0 mi Variable 3.5 mph - N/A   Clear
5:53 PM 73.9 °F 55.0 °F 52% 30.24 in 10.0 mi Calm Calm - N/A   Partly Cloudy
6:53 PM 69.1 °F 55.9 °F 63% 30.25 in 10.0 mi Calm Calm - N/A   Clear
7:53 PM 64.9 °F 55.9 °F 73% 30.25 in 10.0 mi Calm Calm - N/A   Clear
8:53 PM 63.0 °F 55.9 °F 78% 30.26 in 10.0 mi Calm Calm - N/A   Mostly Cloudy
9:53 PM 61.0 °F 55.9 °F 83% 30.27 in 10.0 mi Calm Calm - N/A   Scattered Clouds
10:53 PM 60.1 °F 55.9 °F 86% 30.27 in 9.0 mi Calm Calm - N/A   Clear
11:53 PM 57.9 °F 55.0 °F 90% 30.27 in 7.0 mi Calm Calm - N/A   Clear